TimeEST,TemperatureF,Dew PointF,Humidity,Sea Level PressureIn,VisibilityMPH,Wind Direction,Wind SpeedMPH,Gust SpeedMPH,PrecipitationIn,Events,Conditions,WindDirDegrees,DateUTC
12:15 AM,62.6,60.8,94,29.91,10.0,South,9.2,-,N/A,,Overcast,180,2012-12-17 05:15:00
12:35 AM,62.6,62.6,100,29.89,10.0,South,10.4,-,N/A,,Overcast,180,2012-12-17 05:35:00
12:55 AM,62.6,62.6,100,29.89,10.0,South,11.5,-,N/A,,Overcast,180,2012-12-17 05:55:00
1:15 AM,62.6,60.8,94,29.89,10.0,South,10.4,-,N/A,,Overcast,180,2012-12-17 06:15:00
1:35 AM,62.6,60.8,94,29.89,9.0,South,10.4,-,N/A,,Overcast,190,2012-12-17 06:35:00
1:55 AM,62.6,62.6,100,29.89,10.0,SW,4.6,-,N/A,,Overcast,220,2012-12-17 06:55:00
2:15 AM,62.6,60.8,94,29.89,10.0,SSW,4.6,-,N/A,,Overcast,200,2012-12-17 07:15:00
2:35 AM,62.6,62.6,100,29.88,10.0,South,4.6,-,N/A,,Overcast,180,2012-12-17 07:35:00
2:55 AM,62.6,60.8,94,29.87,10.0,South,5.8,-,N/A,,Overcast,180,2012-12-17 07:55:00
3:15 AM,62.6,62.6,100,29.87,10.0,SSW,4.6,-,N/A,,Mostly Cloudy,200,2012-12-17 08:15:00
3:35 AM,62.6,62.6,100,29.88,10.0,SW,4.6,-,N/A,,Overcast,230,2012-12-17 08:35:00
3:55 AM,64.4,62.6,94,29.86,10.0,WSW,5.8,-,N/A,,Overcast,240,2012-12-17 08:55:00
4:15 AM,64.4,62.6,94,29.87,10.0,WSW,6.9,-,N/A,,Overcast,240,2012-12-17 09:15:00
4:35 AM,64.4,62.6,94,29.86,10.0,WSW,8.1,-,N/A,,Overcast,240,2012-12-17 09:35:00
4:55 AM,64.4,62.6,94,29.87,10.0,WSW,8.1,-,N/A,,Mostly Cloudy,240,2012-12-17 09:55:00
5:15 AM,64.4,62.6,94,29.86,10.0,SW,5.8,-,N/A,,Overcast,230,2012-12-17 10:15:00
5:35 AM,64.4,62.6,94,29.85,10.0,WSW,5.8,-,N/A,,Overcast,240,2012-12-17 10:35:00
5:55 AM,64.4,62.6,94,29.85,10.0,SW,4.6,-,N/A,,Scattered Clouds,230,2012-12-17 10:55:00
6:50 AM,64.4,60.8,88,29.83,10.0,SW,11.5,-,N/A,,Overcast,220,2012-12-17 11:50:00
7:50 AM,64.4,60.8,88,29.83,10.0,WSW,8.1,-,N/A,,Mostly Cloudy,240,2012-12-17 12:50:00
8:45 AM,64.4,60.8,88,29.88,10.0,West,8.1,-,N/A,,Mostly Cloudy,270,2012-12-17 13:45:00
9:50 AM,64.4,62.6,94,29.88,10.0,West,8.1,-,N/A,,Mostly Cloudy,260,2012-12-17 14:50:00
10:45 AM,64.4,62.6,94,29.88,10.0,WSW,5.8,-,N/A,,Mostly Cloudy,250,2012-12-17 15:45:00
11:45 AM,64.4,62.6,94,29.84,10.0,West,6.9,-,N/A,,Mostly Cloudy,270,2012-12-17 16:45:00
1:45 PM,64.4,62.6,94,29.83,10.0,WSW,5.8,-,N/A,,Overcast,240,2012-12-17 18:45:00
2:45 PM,64.4,62.6,94,29.82,10.0,Calm,Calm,-,N/A,,Overcast,0,2012-12-17 19:45:00
3:45 PM,62.6,60.8,94,29.80,10.0,West,4.6,-,N/A,,Overcast,270,2012-12-17 20:45:00
7:50 PM,60.8,60.8,100,29.83,10.0,South,10.4,-,N/A,Rain,Light Rain,180,2012-12-18 00:50:00
8:45 PM,59.0,59.0,100,29.77,10.0,SSE,11.5,-,N/A,Rain,Light Rain,160,2012-12-18 01:45:00
9:45 PM,59.0,57.2,94,29.73,10.0,South,17.3,-,N/A,,Scattered Clouds,170,2012-12-18 02:45:00
11:15 PM,59.0,57.2,94,29.77,10.0,WSW,3.5,-,N/A,,Mostly Cloudy,240,2012-12-18 04:15:00
11:35 PM,59.0,57.2,94,29.76,10.0,Calm,Calm,-,N/A,,Overcast,0,2012-12-18 04:35:00
11:55 PM,59.0,57.2,94,29.77,10.0,WSW,6.9,-,N/A,,Overcast,250,2012-12-18 04:55:00